Location: Oberkirch
(48.5323°N, 8.0787°E)
Time: 20:30:24
(UTC+00:00)

Tiros 1 - Pass Details

Date: 21 February 2026
Orbit: 618 x 649 km, 48.4° (Epoch: 5 March)

Event Time Altitude Azimuth Distance (km) Brightness Sun altitude
Rises 11:08:05 0° 282° (WNW) 2,904 10.3 30.5°
Reaches altitude 10° 11:10:25 10° 279° (W) 1,992 9.6 30.6°
Maximum altitude 11:14:57 65° 198° (SSW) 683 8.3 30.7°
Drops below altitude 10° 11:19:27 10° 117° (ESE) 1,977 10.2 30.8°
Sets 11:21:45 0° 115° (ESE) 2,881 10.9 30.9°
